Location: Nag� el Ma?a??a
(24.0667°N, 32.8833°E)
Time: 12:05:40
(UTC+00:00)

N. Korean satellite - Visible Passes

Search period start: 29 November 2022 00:00
Search period end: 09 December 2022 00:00
Orbit: 421 x 454 km, 97.3° (Epoch: 28 November)

Date Brightness Start Highest point End Pass type
(mag) Time Alt. Az. Time Alt. Az. Time Alt. Az.
29 Nov 9.6 02:12:05 10° ENE 02:14:09 15° E 02:16:11 10° SE visible
29 Nov 8.0 03:44:23 10° NW 03:46:27 15° WNW 03:48:31 10° WSW visible
30 Nov 6.3 03:04:36 10° N 03:07:57 65° WNW 03:11:17 10° SSW visible
01 Dec 8.7 02:26:23 10° NE 02:29:15 25° E 02:32:04 10° SSE visible
02 Dec 6.9 03:19:46 10° N 03:22:53 35° WNW 03:25:58 10° SW visible
03 Dec 7.5 02:40:55 10° NNE 02:44:10 45° E 02:47:22 10° S visible
04 Dec 9.9 02:04:23 10° E 02:05:15 11° E 02:06:07 10° ESE visible
04 Dec 7.7 03:35:04 10° NNW 03:37:38 21° WNW 03:40:12 10° SW visible
04 Dec 10.3 15:29:51 10° WSW 15:30:31 10° W 15:31:12 10° W visible
05 Dec 6.3 02:55:33 10° NNE 02:58:56 84° ESE 03:02:14 10° S visible
06 Dec 9.3 02:17:37 10° NE 02:19:59 18° E 02:22:21 10° SE visible
06 Dec 8.2 03:50:43 10° NW 03:52:14 13° WNW 03:53:45 10° W visible
07 Dec 6.4 03:10:15 10° N 03:13:31 52° WNW 03:16:44 10° SSW visible
08 Dec 8.3 02:31:35 10° NE 02:34:35 30° E 02:37:31 10° SSE visible
